Regional Weather Roundup
Issued by NWS

Home | Current Version | Previous Version | Graphics & Text | Print | Product List | Glossary On
Versions: 1 2 3 4 5 6 7 8 9 10 11 12 13 14 15 16 17 18 19 20 21 22 23 24 25 26 27 28 29 30 31 32 33 34 35 36 37 38 39 40 41 42 43 44 45 46 47 48 49 50
000
ASUS45 KBOU 041407
RWRCO

WEATHER ROUNDUP FOR COLORADO
NATIONAL WEATHER SERVICE DENVER/BOULDER CO
800 AM MDT TUE AUG 04 2015

NOTE: "FAIR" INDICATES FEW OR NO CLOUDS BELOW 12000 FEET WITH NO
SIGNIFICANT WEATHER AND/OR OBSTRUCTIONS TO VISIBILITY.

COZ001>005-013-030-031-041500-
...NORTHWEST COLORADO...

CITY           SKY/WX    TMP DP  RH WIND       PRES   REMARKS
CRAIG          NOT AVBL
HAYDEN         MOSUNNY   54  48  82 E6        30.24R
MEEKER         SUNNY     53  46  77 CALM      30.24S
MOUNT WERNER   NOT AVBL
STEAMBOAT SPGS   N/A     49  49  99 CALM      30.26R VSB 1/4
WALDEN         PTSUNNY   54  43  66 SW14G23   30.27S
$$

COZ006>008-011-041500-
...WEST CENTRAL VALLEYS...

CITY           SKY/WX    TMP DP  RH WIND       PRES   REMARKS
GRAND JUNCTION SUNNY     65  50  58 SE8       30.16R
MONTROSE       SUNNY     61  52  72 SE6       30.24R
EAGLE          SUNNY     54  45  71 CALM      30.28R
RIFLE          SUNNY     59  52  77 NE3       30.21R
DELTA          HVY RAIN  64  51  63 NE12      30.21R
NUCLA          SUNNY     61  46  59 E6        30.28R
$$

COZ017>023-064>068-041500-
...SOUTHWEST COLORADO...

CITY           SKY/WX    TMP DP  RH WIND       PRES   REMARKS
DURANGO        SUNNY     59  45  59 S3        30.28R
CORTEZ         SUNNY     60  52  74 CALM      30.24R
PAGOSA SPRINGS SUNNY     55  43  62 CALM      30.36S
TELLURIDE      SUNNY     52  44  73 E3        30.47R
WOLF CREEK PAS NOT AVBL
$$

COZ009-010-012-014-032>034-037-058>063-041500-
...CENTRAL COLORADO...

CITY           SKY/WX    TMP DP  RH WIND       PRES   REMARKS
ASPEN          SUNNY     53  43  68 CALM      30.32S
BUENA VISTA    SUNNY     54  43  67 CALM      30.32R
COPPER MTN     SUNNY     46  32  57 W24       30.54F
BERTHOUD PASS  FAIR      37  28  70 W37G49    30.50F
COTTONWOOD PAS SUNNY     55  37  50 N9        30.41S
GUNNISON       SUNNY     50  45  81 CALM      30.40S
KREMMLING      SUNNY     50  41  71 CALM      30.30F
LEADVILLE      MOSUNNY   53  34  48 N5G16     30.42R
MONARCH PASS   SUNNY     39  36  87 W39       30.64S
SALIDA         SUNNY     58  47  66 NW9       30.35R
SUNLIGHT       SUNNY     46  41  81 CALM      30.52R
WILKERSON PASS NOT AVBL
$$

COZ069>075-041500-
...SAN LUIS VALLEY/SANGRE DE CRISTO MOUNTAINS...

CITY           SKY/WX    TMP DP  RH WIND       PRES   REMARKS
ALAMOSA        SUNNY     52  49  89 S6        30.33S
LA VETA PASS   SUNNY     50  41  71 MISG      30.46R
SAGUACHE       SUNNY     55  45  67 N9        30.35F
$$

COZ035-036-038>040-041500-
...NORTHERN COLORADO FRONT RANGE...

CITY           SKY/WX    TMP DP  RH WIND       PRES   REMARKS
DENVER INTL AP PTSUNNY   68  48  48 E6        30.08R
DMNS CITY PARK   N/A     67  49  53 SE8       30.07R
AURORA         PTSUNNY   68  48  47 SW5       30.09R
FRONT RANGE AP MOSUNNY   68  45  42 CALM      30.10R
ERIE MUNI ARPT MOSUNNY   65  55  69 E5        30.06R
BOULDER MUN AP MOSUNNY   68  54  60 NE7       30.06R
CENTENNIAL     MOSUNNY   66  49  54 E3        30.10R
BROOMFIELD     PTSUNNY   75  41  29 SW15G24   30.08R
FORT COLLINS   MOSUNNY   64  55  72 CALM      30.07R
LONGMONT       MOSUNNY   68  55  64 E6        30.07R
$$

COZ041-046-047-076>085-087-088-041500-
...PIKES PEAK/PALMER DIVIDE AND SOUTHERN FOOTHILLS...

CITY           SKY/WX    TMP DP  RH WIND       PRES   REMARKS
COLO. SPRINGS  MOSUNNY   67  49  52 CALM      30.13R
A. F. ACADEMY  MOSUNNY   67  47  47 NE6       30.15R
ELLICOTT       SUNNY    N/A N/A N/A CALM      30.11S
FALCON         SUNNY     69  43  39 W7        30.18S
FORT CARSON    SUNNY     62  53  73 N7        30.09S
LIMON          SUNNY     66  51  58 NW7       30.07R
MONUMENT HILL  MOSUNNY   64  43  45 W3        30.18S
TRINIDAD       SUNNY     65  53  65 SW17      30.12S
$$

COZ042>045-048>051-090-091-041500-
...NORTHEAST COLORADO...

CITY           SKY/WX    TMP DP  RH WIND       PRES   REMARKS
GREELEY ARPT   MOSUNNY   64  54  68 CALM      30.06R
AKRON          SUNNY     63  54  72 N9        30.04R
BURLINGTON     SUNNY     73  58  59 SW10      30.01R
WRAY           PTSUNNY   70  57  63 NE7       29.99F
STERLING       CLOUDY    64  54  68 CALM      30.02R
HOLYOKE        PTSUNNY   68  54  60 E7        30.01S
FORT MORGAN    SUNNY     65  52  63 CALM      30.04R
$$

COZ086-089-092>099-041500-
...SOUTHEAST COLORADO...

CITY           SKY/WX    TMP DP  RH WIND       PRES   REMARKS
PUEBLO         SUNNY     68  57  68 W10       30.04F
LA JUNTA       SUNNY     66  59  78 S8        30.02R
LAMAR          SUNNY     66  60  81 SW6       29.99F
SPRINGFIELD      N/A     67  58  72 S8        30.05S
$$


USA.gov is the U.S. government's official web portal to all federal, state and local government web resources and services.